Weather History for Kecskemet, Hungary

Change the Weather History Date:

Tuesday, October 16, 2012

  Actual Average (LHBP) Record (LHBP)
Temperature  
Mean Temperature 57 °F -  
Max Temperature 68 °F 58 °F 71 °F (2001)
Min Temperature 46 °F 39 °F 28 °F (2007)
Degree Days  
Heating Degree Days 8    
Growing Degree Days 7 (Base 50)    
Moisture  
Dew Point 54 °F    
Average Humidity 91    
Maximum Humidity 100    
Minimum Humidity 78    
Precipitation  
Precipitation 0.00 in - - ()
Sea Level Pressure  
Sea Level Pressure 29.82 in    
Wind  
Wind Speed 8 mph ()    
Max Wind Speed 18 mph    
Max Gust Speed 29 mph    
Visibility 4.8 miles    
Events Rain    
Averages and records for this station are not official NWS values.
T = Trace of Precipitation, MM = Missing Value Source: Averaged Metar Reports

Daily Weather History Graph

Daily Weather History Graph

Search for Another Location

Airport:

Trip Planner

Search our weather history database for the weather conditions in past years. The results will help you decide how hot, cold, wet, or windy it might be!

Date:

Astronomy

Oct. 16, 2012 Rise Set
Actual Time 7:00 AM CEST 5:51 PM CEST
Civil Twilight 6:29 AM CEST 6:22 PM CEST
Nautical Twilight 5:54 AM CEST 6:57 PM CEST
Astronomical Twilight 5:19 AM CEST 7:32 PM CEST
Moon 8:08 AM CEST (10/16) 6:13 PM CEST (10/16)
Length of Visible Light 11h 52m
Length of Day
10h 50m
New Moon, 1% of the Moon is Illuminated
Oct 16
New Moon
Oct 22
First Quarter
Oct 29
Full
Nov 7
Last Quarter
Nov 13
New

Hourly Weather History & Observations

Time (CEST) Temp. Windchill Dew Point Humidity Pressure Visibility Wind Dir Wind Speed Gust Speed Precip Events Conditions
12:15 AM 59.0 °F - 57.2 °F 94% 29.83 in 5.0 mi SE 6.7 mph - N/A   Unknown
12:45 AM 59.0 °F - 57.2 °F 94% 29.83 in 5.0 mi ESE 6.7 mph - N/A   Unknown
1:15 AM 59.0 °F - 57.2 °F 94% 29.83 in 5.0 mi SE 8.9 mph - N/A   Unknown
1:45 AM 57.2 °F - 57.2 °F 100% 29.83 in 5.0 mi SE 8.9 mph - N/A   Unknown
2:15 AM 57.2 °F - 55.4 °F 94% 29.83 in 5.0 mi SSE 6.7 mph - N/A   Unknown
2:45 AM 57.2 °F - 57.2 °F 100% 29.83 in 5.0 mi SE 6.7 mph - N/A   Unknown
3:15 AM 57.2 °F - 57.2 °F 100% 29.80 in 3.7 mi SE 6.7 mph - N/A   Unknown
3:45 AM - - - N/A% - 1.9 mi SE 6.7 mph - N/A   Overcast
4:15 AM 57.2 °F - 55.4 °F 94% 29.80 in 3.7 mi SE 6.7 mph - N/A   Clear
4:45 AM 57.2 °F - 55.4 °F 94% 29.80 in 3.7 mi ESE 6.7 mph - N/A   Unknown
5:15 AM 55.4 °F - 55.4 °F 100% 29.80 in 3.1 mi ENE 6.7 mph - N/A   Mostly Cloudy
5:45 AM 55.4 °F - 55.4 °F 100% 29.80 in 3.1 mi East 6.7 mph - N/A   Mostly Cloudy
6:15 AM 55.4 °F - 55.4 °F 100% 29.80 in 3.1 mi East 6.7 mph - N/A   Mostly Cloudy
6:45 AM - - - N/A% - 2.5 mi SE 11.2 mph - N/A   Overcast
7:15 AM 57.2 °F - 55.4 °F 94% 29.77 in 3.7 mi East 6.7 mph - N/A   Unknown
7:45 AM 59.0 °F - 55.4 °F 88% 29.77 in 5.0 mi East 6.7 mph - N/A   Unknown
8:15 AM 59.0 °F - 55.4 °F 88% 29.77 in - ESE 8.9 mph - N/A   Clear
8:45 AM 59.0 °F - 55.4 °F 88% 29.77 in - ESE 8.9 mph - N/A   Clear
9:09 AM 60.8 °F - 55.4 °F 82% 29.77 in 6.2 mi ESE 8.9 mph - N/A Rain Light Rain
9:15 AM 60.8 °F - 55.4 °F 82% 29.77 in 6.2 mi SE 8.9 mph - N/A Rain Light Rain
9:45 AM - - - N/A% - 5.0 mi South 11.2 mph - N/A   Overcast
10:15 AM 59.0 °F - 57.2 °F 94% 29.77 in 3.7 mi East 2.2 mph - N/A Rain Light Rain
10:24 AM 59.0 °F - 59.0 °F 100% 29.77 in 3.1 mi East 4.5 mph - N/A Rain Light Rain
10:45 AM 59.0 °F - 59.0 °F 100% 29.77 in 3.1 mi East 4.5 mph - N/A Rain Rain
11:15 AM 60.8 °F - 59.0 °F 94% 29.77 in 3.1 mi ESE 6.7 mph - N/A Rain Rain
11:45 AM 60.8 °F - 59.0 °F 94% 29.77 in 3.1 mi ESE 6.7 mph - N/A Rain Rain
12:15 PM 60.8 °F - 60.8 °F 100% 29.77 in 4.3 mi East 6.7 mph - N/A Rain Light Rain
12:45 PM - - - N/A% - 1.9 mi South 11.2 mph - N/A Rain Rain
1:15 PM 64.4 °F - 60.8 °F 88% 29.77 in 5.0 mi South 6.7 mph - N/A   Unknown
1:45 PM 64.4 °F - 60.8 °F 88% 29.74 in - SSE 6.7 mph - N/A   Clear
2:15 PM 64.4 °F - 60.8 °F 88% 29.74 in - South 2.2 mph - N/A   Clear
2:45 PM 66.2 °F - 60.8 °F 83% 29.74 in - South 4.5 mph - N/A   Clear
3:15 PM 68.0 °F - 60.8 °F 78% 29.74 in 6.2 mi SSW 6.7 mph 17.9 mph N/A   Mostly Cloudy
3:23 PM 66.2 °F - 59.0 °F 78% 29.74 in 5.0 mi SSW 8.9 mph - N/A Rain Light Rain
3:37 PM 64.4 °F - 60.8 °F 88% 29.77 in 5.0 mi WSW 8.9 mph 26.8 mph N/A   Mostly Cloudy
3:45 PM - - - N/A% - 5.0 mi West 11.2 mph 22.4 mph N/A Rain Rain
4:15 PM 62.6 °F - 59.0 °F 88% 29.77 in 5.0 mi WSW 8.9 mph - N/A   Mostly Cloudy
4:45 PM 55.4 °F - 53.6 °F 94% 29.80 in 5.0 mi WSW 11.2 mph 29.1 mph N/A   Overcast
5:00 PM - - - N/A% - 6.2 mi West 11.2 mph 22.4 mph N/A   Mostly Cloudy
5:15 PM 51.8 °F - 50.0 °F 94% 29.83 in 6.2 mi West 15.7 mph - N/A   Overcast
5:45 PM 51.8 °F - 48.2 °F 88% 29.83 in 6.2 mi West 17.9 mph - N/A   Scattered Clouds
6:15 PM 50.0 °F - 48.2 °F 94% 29.86 in 6.2 mi West 17.9 mph - N/A   Scattered Clouds
6:45 PM - - - N/A% - 6.2 mi West 11.2 mph 22.4 mph N/A   Overcast
7:15 PM 50.0 °F - 46.4 °F 87% 29.89 in 6.2 mi West 15.7 mph - N/A   Overcast
7:45 PM 48.2 °F - 46.4 °F 93% 29.92 in 6.2 mi West 15.7 mph - N/A   Overcast
8:15 PM 50.0 °F - 46.4 °F 87% 29.92 in 6.2 mi West 11.2 mph - N/A   Overcast
8:45 PM 50.0 °F - 44.6 °F 82% 29.95 in 6.2 mi West 11.2 mph - N/A   Overcast
9:15 PM 48.2 °F - 44.6 °F 87% 29.95 in 6.2 mi West 11.2 mph - N/A   Mostly Cloudy
9:45 PM - - - N/A% - 6.2 mi West 11.2 mph 22.4 mph N/A   Clear
10:15 PM 48.2 °F - 42.8 °F 82% 29.98 in 6.2 mi West 13.4 mph - N/A   Overcast
10:45 PM 48.2 °F - 42.8 °F 82% 30.01 in 6.2 mi West 13.4 mph - N/A   Overcast
11:15 PM 46.4 °F 42.0 °F 42.8 °F 87% 30.01 in 6.2 mi West 8.9 mph - N/A   Mostly Cloudy
11:45 PM 46.4 °F 42.0 °F 42.8 °F 87% 30.04 in 6.2 mi West 8.9 mph - N/A   Scattered Clouds